Location: Gisborne
(38.6530°S, 178.0040°E)
Time: 22:22:17
(UTC+13:00)

ADEOS Rocket - Pass Details

Date: 24 January 2019
Orbit: 859 x 1306 km, 98.7° (Epoch: 17 October)

Event Time Altitude Azimuth Distance (km) Brightness Sun altitude
Exits shadow 21:20:11 11° 50° (NE) 2,453 4.4 -9.4°
Maximum altitude 21:24:52 34° 112° (ESE) 1,408 3.6 -10.2°
Drops below altitude 10° 21:29:48 10° 175° (S) 2,530 5.6 -10.9°
Sets 21:32:22 0° 183° (S) 3,485 6.5 -11.3°
